Voltar ao catálogo

CZ-6A DEB

AtivoSSO
NORAD 58432·DEBRIS·🇨🇳 China

Lançado Nov 11, 2022 de Taiyuan Satellite Launch Center

Loading…

Próximas Passagens (próximas 24 horas)

TLE

EnvelhecendoSource: Space-Track

Época: Sep 10, 2026, 08:32 UTC

1 58432U 22151AJA 26253.35569416  .00000571  00000-0  27183-3 0  9997
2 58432  98.7869 277.5453 0013992 102.0744 258.2002 14.23212311173400

Acompanhe CZ-6A DEB em tempo real com AllMySat

Download on the App Store